Location: Frankfurt+(oder)
(51.7984°N, 12.2168°E)
Time: 14:36:43
(UTC+01:00)

ISS - Pass Details

Date: 12 January 2018
Orbit: 402 x 406 km, 51.6° (Epoch: 16 January)

Event Time Altitude Azimuth Distance (km) Brightness Sun altitude
Exits shadow 04:52:11 12° 107° (ESE) 1,333 -0.5 -30.2°
Drops below altitude 10° 04:52:31 10° 107° (ESE) 1,464 -0.2 -30.2°
Sets 04:54:36 0° 105° (ESE) 2,324 1.1 -29.9°
